Location: Aalen
(48.8330°N, 10.1000°E)
Time: 19:03:29
(UTC+02:00)

Transit 4A - Pass Details

Date: 10 August 2021
Orbit: 871 x 974 km, 66.8° (Epoch: 16 September)

Event Time Altitude Azimuth Distance (km) Brightness Sun altitude
Rises 03:45:35 0° 307° (NW) 3,467 10.9 -18.5°
Reaches altitude 10° 03:49:38 10° 335° (NNW) 2,530 10.5 -18.1°
Maximum altitude 03:52:18 13° 2° (N) 2,313 10.7 -17.8°
Drops below altitude 10° 03:54:59 10° 30° (NNE) 2,541 11.5 -17.6°
Sets 03:59:05 0° 57° (ENE) 3,495 12.3 -17.1°
